Time,TemperatureF,DewpointF,PressureIn,WindDirection,WindDirectionDegrees,WindSpeedMPH,WindSpeedGustMPH,Humidity,HourlyPrecipIn,Conditions,Clouds,dailyrainin,SoftwareType,DateUTC
2013-02-16 00:04:00,52.9,50.3,29.82,NNE,22,2.2,-999.0,91,-99.99,,,0.00,Acu-Link.com,2013-02-16 05:04:00,
2013-02-16 00:19:00,52.7,49.8,29.81,NNE,22,3.2,-999.0,90,-99.99,,,0.00,Acu-Link.com,2013-02-16 05:19:00,
2013-02-16 00:34:00,53.1,49.9,29.80,WNW,292,3.7,-999.0,89,-99.99,,,0.00,Acu-Link.com,2013-02-16 05:34:00,
2013-02-16 00:49:00,53.4,49.9,29.81,NNE,22,3.7,-999.0,88,-99.99,,,0.00,Acu-Link.com,2013-02-16 05:49:00,
2013-02-16 01:04:00,53.6,49.8,29.81,NNE,22,2.2,-999.0,87,-99.99,,,0.00,Acu-Link.com,2013-02-16 06:04:00,
2013-02-16 01:20:00,53.2,50.0,29.80,NE,45,1.7,-999.0,89,-99.99,,,0.00,Acu-Link.com,2013-02-16 06:20:00,
2013-02-16 01:35:00,53.1,49.9,29.79,NNE,22,3.7,-999.0,89,-99.99,,,0.00,Acu-Link.com,2013-02-16 06:35:00,
2013-02-16 01:50:00,52.9,50.3,29.79,NNW,337,2.7,-999.0,91,-99.99,,,0.00,Acu-Link.com,2013-02-16 06:50:00,
2013-02-16 02:05:00,52.7,50.4,29.78,West,270,2.2,-999.0,92,-99.99,,,0.00,Acu-Link.com,2013-02-16 07:05:00,
2013-02-16 02:20:00,52.0,49.7,29.78,West,270,0.0,-999.0,92,-99.99,,,0.00,Acu-Link.com,2013-02-16 07:20:00,
2013-02-16 02:36:00,51.6,49.4,29.78,NNE,22,1.1,-999.0,92,-99.99,,,0.00,Acu-Link.com,2013-02-16 07:36:00,
2013-02-16 02:51:00,52.3,50.0,29.78,NNW,337,0.0,-999.0,92,-99.99,,,0.00,Acu-Link.com,2013-02-16 07:51:00,
2013-02-16 03:06:00,51.6,49.6,29.77,NNW,337,1.1,-999.0,93,-99.99,,,0.00,Acu-Link.com,2013-02-16 08:06:00,
2013-02-16 03:21:00,51.6,49.1,29.77,NNW,337,1.7,-999.0,91,-99.99,,,0.00,Acu-Link.com,2013-02-16 08:21:00,
2013-02-16 03:37:00,51.8,49.3,29.77,NNW,337,0.0,-999.0,91,-99.99,,,0.00,Acu-Link.com,2013-02-16 08:37:00,
2013-02-16 03:52:00,51.1,48.6,29.76,SSW,202,0.0,-999.0,91,-99.99,,,0.00,Acu-Link.com,2013-02-16 08:52:00,
2013-02-16 04:18:00,50.7,48.2,29.76,West,270,0.0,-999.0,91,-99.99,,,0.00,Acu-Link.com,2013-02-16 09:18:00,
2013-02-16 04:33:00,50.7,49.3,29.77,NNW,337,4.7,-999.0,95,-99.99,,,0.00,Acu-Link.com,2013-02-16 09:33:00,
2013-02-16 04:49:00,50.5,49.7,29.76,WNW,292,4.7,-999.0,97,-99.99,,,0.00,Acu-Link.com,2013-02-16 09:49:00,
2013-02-16 05:04:00,50.2,49.4,29.77,WNW,292,2.7,-999.0,97,-99.99,,,0.00,Acu-Link.com,2013-02-16 10:04:00,
2013-02-16 05:19:00,50.0,49.7,29.77,West,270,0.0,-999.0,99,-99.99,,,0.00,Acu-Link.com,2013-02-16 10:19:00,
2013-02-16 05:34:00,50.4,50.1,29.77,NW,315,4.2,-999.0,99,-99.99,,,0.00,Acu-Link.com,2013-02-16 10:34:00,
2013-02-16 05:49:00,50.4,49.6,29.76,West,270,2.2,-999.0,97,-99.99,,,0.00,Acu-Link.com,2013-02-16 10:49:00,
2013-02-16 06:05:00,49.8,49.0,29.77,West,270,2.7,-999.0,97,-99.99,,,0.00,Acu-Link.com,2013-02-16 11:05:00,
2013-02-16 06:20:00,50.4,49.6,29.77,WNW,292,3.7,-999.0,97,-99.99,,,0.00,Acu-Link.com,2013-02-16 11:20:00,
2013-02-16 06:35:00,50.7,49.3,29.77,WNW,292,3.2,-999.0,95,-99.99,,,0.00,Acu-Link.com,2013-02-16 11:35:00,
2013-02-16 06:50:00,50.5,48.8,29.76,NW,315,2.2,-999.0,94,-99.99,,,0.00,Acu-Link.com,2013-02-16 11:50:00,
2013-02-16 07:05:00,50.4,48.7,29.77,SW,225,0.0,-999.0,94,-99.99,,,0.00,Acu-Link.com,2013-02-16 12:05:00,
2013-02-16 07:21:00,50.0,48.6,29.76,SW,225,0.0,-999.0,95,-99.99,,,0.00,Acu-Link.com,2013-02-16 12:21:00,
2013-02-16 07:36:00,50.2,49.4,29.77,West,270,0.0,-999.0,97,-99.99,,,0.00,Acu-Link.com,2013-02-16 12:36:00,
2013-02-16 07:51:00,51.4,50.9,29.76,West,270,0.0,-999.0,98,-99.99,,,0.00,Acu-Link.com,2013-02-16 12:51:00,
2013-02-16 08:06:00,52.0,51.5,29.76,WSW,247,2.2,-999.0,98,-99.99,,,0.00,Acu-Link.com,2013-02-16 13:06:00,
2013-02-16 08:22:00,53.1,51.7,29.76,West,270,2.2,-999.0,95,-99.99,,,0.00,Acu-Link.com,2013-02-16 13:22:00,
2013-02-16 08:37:00,54.3,52.0,29.77,WSW,247,3.2,-999.0,92,-99.99,,,0.00,Acu-Link.com,2013-02-16 13:37:00,
2013-02-16 08:52:00,55.8,52.9,29.77,West,270,4.7,-999.0,90,-99.99,,,0.00,Acu-Link.com,2013-02-16 13:52:00,
2013-02-16 09:07:00,55.9,51.5,29.77,West,270,3.7,-999.0,85,-99.99,,,0.00,Acu-Link.com,2013-02-16 14:07:00,
2013-02-16 09:22:00,57.0,49.9,29.77,West,270,3.7,-999.0,77,-99.99,,,0.00,Acu-Link.com,2013-02-16 14:22:00,
2013-02-16 09:38:00,57.0,47.3,29.78,WNW,292,4.7,-999.0,70,-99.99,,,0.00,Acu-Link.com,2013-02-16 14:38:00,
2013-02-16 09:53:00,57.9,48.2,29.78,West,270,3.7,-999.0,70,-99.99,,,0.00,Acu-Link.com,2013-02-16 14:53:00,
2013-02-16 10:08:00,58.6,47.3,29.78,WSW,247,5.3,-999.0,66,-99.99,,,0.00,Acu-Link.com,2013-02-16 15:08:00,
2013-02-16 10:23:00,61.3,48.2,29.78,West,270,6.3,-999.0,62,-99.99,,,0.00,Acu-Link.com,2013-02-16 15:23:00,
2013-02-16 10:38:00,62.4,43.0,29.79,NW,315,9.4,-999.0,49,-99.99,,,0.00,Acu-Link.com,2013-02-16 15:38:00,
2013-02-16 10:54:00,62.8,44.9,29.78,West,270,7.8,-999.0,52,-99.99,,,0.00,Acu-Link.com,2013-02-16 15:54:00,
2013-02-16 11:09:00,62.6,44.7,29.80,West,270,10.4,-999.0,52,-99.99,,,0.00,Acu-Link.com,2013-02-16 16:09:00,
2013-02-16 11:24:00,62.6,43.2,29.79,WSW,247,11.4,-999.0,49,-99.99,,,0.00,Acu-Link.com,2013-02-16 16:24:00,
2013-02-16 11:39:00,64.8,43.5,29.79,West,270,7.8,-999.0,46,-99.99,,,0.00,Acu-Link.com,2013-02-16 16:39:00,
2013-02-16 11:55:00,64.2,43.5,29.78,WSW,247,4.7,-999.0,47,-99.99,,,0.00,Acu-Link.com,2013-02-16 16:55:00,
2013-02-16 12:10:00,65.1,41.4,29.77,WNW,292,18.6,-999.0,42,-99.99,,,0.00,Acu-Link.com,2013-02-16 17:10:00,
2013-02-16 12:25:00,65.3,42.2,29.77,West,270,8.9,-999.0,43,-99.99,,,0.00,Acu-Link.com,2013-02-16 17:25:00,
2013-02-16 12:40:00,65.1,42.6,29.76,West,270,8.9,-999.0,44,-99.99,,,0.00,Acu-Link.com,2013-02-16 17:40:00,
2013-02-16 12:55:00,65.1,44.9,29.75,West,270,14.0,-999.0,48,-99.99,,,0.00,Acu-Link.com,2013-02-16 17:55:00,
2013-02-16 13:11:00,65.1,44.4,29.74,NW,315,10.9,-999.0,47,-99.99,,,0.00,Acu-Link.com,2013-02-16 18:11:00,
2013-02-16 13:26:00,65.1,43.8,29.74,West,270,7.8,-999.0,46,-99.99,,,0.00,Acu-Link.com,2013-02-16 18:26:00,
2013-02-16 13:41:00,64.9,44.2,29.74,WSW,247,11.4,-999.0,47,-99.99,,,0.00,Acu-Link.com,2013-02-16 18:41:00,
2013-02-16 13:56:00,64.8,43.0,29.73,West,270,7.3,-999.0,45,-99.99,,,0.00,Acu-Link.com,2013-02-16 18:56:00,
2013-02-16 14:12:00,64.4,41.4,29.74,WNW,292,8.3,-999.0,43,-99.99,,,0.00,Acu-Link.com,2013-02-16 19:12:00,
2013-02-16 14:27:00,64.6,39.7,29.74,West,270,11.9,-999.0,40,-99.99,,,0.00,Acu-Link.com,2013-02-16 19:27:00,
2013-02-16 14:42:00,65.5,41.2,29.74,West,270,13.0,-999.0,41,-99.99,,,0.00,Acu-Link.com,2013-02-16 19:42:00,
2013-02-16 14:57:00,65.3,43.4,29.73,West,270,8.3,-999.0,45,-99.99,,,0.00,Acu-Link.com,2013-02-16 19:57:00,
2013-02-16 15:13:00,62.8,44.9,29.73,WNW,292,14.5,-999.0,52,-99.99,,,0.00,Acu-Link.com,2013-02-16 20:13:00,
2013-02-16 15:28:00,61.9,43.6,29.74,WNW,292,9.4,-999.0,51,-99.99,,,0.00,Acu-Link.com,2013-02-16 20:28:00,
2013-02-16 15:43:00,62.4,43.0,29.75,West,270,14.5,-999.0,49,-99.99,,,0.00,Acu-Link.com,2013-02-16 20:43:00,
2013-02-16 15:58:00,60.6,42.4,29.77,NW,315,17.6,-999.0,51,-99.99,,,0.00,Acu-Link.com,2013-02-16 20:58:00,
2013-02-16 16:14:00,59.2,43.0,29.77,West,270,10.4,-999.0,55,-99.99,,,0.00,Acu-Link.com,2013-02-16 21:14:00,
2013-02-16 16:29:00,58.3,43.1,29.77,West,270,9.4,-999.0,57,-99.99,,,0.00,Acu-Link.com,2013-02-16 21:29:00,
2013-02-16 16:44:00,57.9,41.8,29.78,WNW,292,10.9,-999.0,55,-99.99,,,0.00,Acu-Link.com,2013-02-16 21:44:00,
2013-02-16 16:59:00,58.6,41.5,29.78,West,270,11.9,-999.0,53,-99.99,,,0.00,Acu-Link.com,2013-02-16 21:59:00,
2013-02-16 17:14:00,58.1,38.5,29.77,West,270,11.4,-999.0,48,-99.99,,,0.00,Acu-Link.com,2013-02-16 22:14:00,
2013-02-16 17:30:00,58.1,38.0,29.78,West,270,7.8,-999.0,47,-99.99,,,0.00,Acu-Link.com,2013-02-16 22:30:00,
2013-02-16 17:45:00,57.2,37.2,29.77,West,270,7.8,-999.0,47,-99.99,,,0.00,Acu-Link.com,2013-02-16 22:45:00,
2013-02-16 18:00:00,55.6,35.2,29.79,West,270,7.3,-999.0,46,-99.99,,,0.00,Acu-Link.com,2013-02-16 23:00:00,
2013-02-16 18:15:00,54.9,32.8,29.80,WSW,247,8.3,-999.0,43,-99.99,,,0.00,Acu-Link.com,2013-02-16 23:15:00,
2013-02-16 18:30:00,54.0,33.7,29.82,West,270,10.9,-999.0,46,-99.99,,,0.00,Acu-Link.com,2013-02-16 23:30:00,
2013-02-16 18:46:00,53.2,34.5,29.82,West,270,12.5,-999.0,49,-99.99,,,0.00,Acu-Link.com,2013-02-16 23:46:00,
2013-02-16 19:01:00,52.9,35.8,29.82,WSW,247,10.9,-999.0,52,-99.99,,,0.00,Acu-Link.com,2013-02-17 00:01:00,
2013-02-16 19:16:00,52.3,35.7,29.83,WNW,292,7.8,-999.0,53,-99.99,,,0.00,Acu-Link.com,2013-02-17 00:16:00,
2013-02-16 19:31:00,52.2,37.0,29.84,WSW,247,7.8,-999.0,56,-99.99,,,0.00,Acu-Link.com,2013-02-17 00:31:00,
2013-02-16 19:46:00,52.0,36.3,29.84,West,270,5.8,-999.0,55,-99.99,,,0.00,Acu-Link.com,2013-02-17 00:46:00,
2013-02-16 20:02:00,51.8,37.1,29.84,WNW,292,9.4,-999.0,57,-99.99,,,0.00,Acu-Link.com,2013-02-17 01:02:00,
2013-02-16 20:17:00,51.6,38.2,29.85,West,270,5.3,-999.0,60,-99.99,,,0.00,Acu-Link.com,2013-02-17 01:17:00,
2013-02-16 20:32:00,51.4,38.8,29.85,WNW,292,4.7,-999.0,62,-99.99,,,0.00,Acu-Link.com,2013-02-17 01:32:00,
2013-02-16 20:47:00,51.4,38.8,29.86,WSW,247,2.2,-999.0,62,-99.99,,,0.00,Acu-Link.com,2013-02-17 01:47:00,
2013-02-16 21:03:00,52.0,39.4,29.87,WSW,247,7.3,-999.0,62,-99.99,,,0.00,Acu-Link.com,2013-02-17 02:03:00,
2013-02-16 21:18:00,51.6,39.0,29.87,WNW,292,6.8,-999.0,62,-99.99,,,0.00,Acu-Link.com,2013-02-17 02:18:00,
2013-02-16 21:33:00,51.8,38.4,29.88,WNW,292,9.9,-999.0,60,-99.99,,,0.00,Acu-Link.com,2013-02-17 02:33:00,
2013-02-16 21:48:00,51.4,36.7,29.89,West,270,9.9,-999.0,57,-99.99,,,0.00,Acu-Link.com,2013-02-17 02:48:00,
2013-02-16 22:03:00,51.3,33.8,29.90,WNW,292,15.5,-999.0,51,-99.99,,,0.00,Acu-Link.com,2013-02-17 03:03:00,
2013-02-16 22:19:00,50.7,34.2,29.92,NW,315,9.4,-999.0,53,-99.99,,,0.00,Acu-Link.com,2013-02-17 03:19:00,
2013-02-16 22:34:00,50.0,32.6,29.93,WNW,292,13.5,-999.0,51,-99.99,,,0.00,Acu-Link.com,2013-02-17 03:34:00,
2013-02-16 22:49:00,49.5,32.1,29.94,NW,315,10.9,-999.0,51,-99.99,,,0.00,Acu-Link.com,2013-02-17 03:49:00,
2013-02-16 23:04:00,48.7,31.4,29.95,NNW,337,7.3,-999.0,51,-99.99,,,0.00,Acu-Link.com,2013-02-17 04:04:00,
2013-02-16 23:20:00,47.7,30.5,29.95,NW,315,7.8,-999.0,51,-99.99,,,0.00,Acu-Link.com,2013-02-17 04:20:00,
2013-02-16 23:35:00,46.9,30.2,29.96,NNW,337,10.9,-999.0,52,-99.99,,,0.00,Acu-Link.com,2013-02-17 04:35:00,
2013-02-16 23:50:00,46.8,31.0,29.97,NNW,337,8.9,-999.0,54,-99.99,,,0.00,Acu-Link.com,2013-02-17 04:50:00,